TimeCDT,TemperatureF,Dew PointF,Humidity,Sea Level PressureIn,VisibilityMPH,Wind Direction,Wind SpeedMPH,Gust SpeedMPH,PrecipitationIn,Events,Conditions,WindDirDegrees,DateUTC
12:53 AM,50.0,45.0,83,30.03,10.0,Calm,Calm,-,N/A,,Clear,0,2013-05-06 05:53:00
1:53 AM,48.0,45.0,89,30.01,10.0,Calm,Calm,-,N/A,,Clear,0,2013-05-06 06:53:00
2:53 AM,48.0,45.0,89,30.00,10.0,Calm,Calm,-,N/A,,Clear,0,2013-05-06 07:53:00
3:53 AM,46.0,44.1,93,30.00,10.0,Calm,Calm,-,N/A,,Clear,0,2013-05-06 08:53:00
4:53 AM,46.0,44.1,93,30.00,5.0,Calm,Calm,-,N/A,,Clear,0,2013-05-06 09:53:00
5:53 AM,48.9,44.1,83,30.01,10.0,West,3.5,-,N/A,,Clear,260,2013-05-06 10:53:00
6:53 AM,52.0,46.0,80,30.02,10.0,Calm,Calm,-,N/A,,Overcast,0,2013-05-06 11:53:00
7:53 AM,55.0,46.9,74,30.03,10.0,Calm,Calm,-,N/A,,Overcast,0,2013-05-06 12:53:00
8:53 AM,59.0,46.0,62,30.04,10.0,West,5.8,-,N/A,,Overcast,270,2013-05-06 13:53:00
9:53 AM,64.9,45.0,48,30.04,10.0,WNW,9.2,18.4,N/A,,Partly Cloudy,290,2013-05-06 14:53:00
10:53 AM,-9999,-9999,N/A,30.04,-9999.0,WSW,10.4,-,N/A,,Clear,250,2013-05-06 15:53:00
11:53 AM,70.0,45.0,41,30.01,10.0,North,-9999.0,-,N/A,,Clear,0,2013-05-06 16:53:00
12:53 PM,70.0,52.0,53,29.99,10.0,SSW,11.5,18.4,N/A,,Partly Cloudy,210,2013-05-06 17:53:00
1:53 PM,71.1,51.1,49,29.97,10.0,SW,11.5,19.6,N/A,,Clear,220,2013-05-06 18:53:00
2:53 PM,68.0,51.1,55,29.96,10.0,SW,8.1,20.7,N/A,,Overcast,220,2013-05-06 19:53:00
3:53 PM,68.0,48.0,49,29.94,10.0,WSW,8.1,19.6,N/A,,Overcast,240,2013-05-06 20:53:00
4:53 PM,68.0,48.9,50,29.93,10.0,SW,13.8,19.6,N/A,,Overcast,230,2013-05-06 21:53:00
5:53 PM,68.0,50.0,52,29.93,10.0,WSW,10.4,16.1,N/A,,Overcast,250,2013-05-06 22:53:00
6:53 PM,68.0,51.1,55,29.94,10.0,WSW,8.1,-,N/A,,Overcast,240,2013-05-06 23:53:00
7:53 PM,66.9,53.1,61,29.95,10.0,Calm,Calm,-,N/A,,Mostly Cloudy,0,2013-05-07 00:53:00
8:53 PM,64.9,52.0,63,29.96,10.0,Calm,Calm,-,N/A,,Overcast,0,2013-05-07 01:53:00
9:53 PM,60.1,54.0,80,30.00,10.0,Calm,Calm,-,N/A,,Mostly Cloudy,0,2013-05-07 02:53:00
10:53 PM,61.0,55.9,83,30.00,10.0,Calm,Calm,-,N/A,,Overcast,0,2013-05-07 03:53:00
11:53 PM,59.0,55.0,87,30.00,10.0,Calm,Calm,-,N/A,,Partly Cloudy,0,2013-05-07 04:53:00